Weather in Ryanza

Russia / Penza Oblast     53°28′50″N   42°27′38″E
temp.,
°C
wind,
m/s
gust,
m/s
humid.,
%
clouds,
%
prec.,
mm/h
press.,
hPa
HPBL,
m
4 march, thu
thu400:00−4wsw5129290 0.0 1011360
03:00−2wsw6119395 0.1 1009603
06:00−2wsw61293100 0.1 1006631
09:000wsw91694100 0.4 1004835
12:000wsw8159099 0.0 1003799
15:00+1wsw8148799 0.0 10021004
18:00−1wsw61294100 0.1 1001736
21:00−1wsw4997100 0.4 1001417
5 march, fri
fri500:00−2wsw4997100 0.4 1000409
03:00−2w4897100 1.1 1001356
06:00−4n3697100 0.7 1002241
09:00−4nnw4694100 0.9 1005379
12:00−2nw358696 0.0 1008751
15:00−2wnw458498 0.1 1010759
18:00−6w349123 0.0 101166
21:00−9w349444 0.0 101465
6 march, sat
sat600:00−10w349467 0.0 101542
03:00−10wnw239183 0.0 101622
06:00−12n1193100 0.0 101621
09:00−10ene1192100 0.0 101660
12:00−7e228889 0.0 1016235
15:00−6e118566 0.0 1015282
18:00−11se129121 0.0 101521
21:00−10ssw229056 0.0 101622
7 march, sun
sun700:00−10sw339498 0.1 101564
03:00−11wsw349692 0.1 101667
06:00−13wsw349669 0.0 101564
09:00−10sw6128942 0.0 1013435
12:00−6sw81481100 0.0 1010857
15:00−4sw91677100 0.0 10061220
18:00−4sw101793100 1.1 10021189
21:00−3w91594100 3.2 10011051
8 march, mon
mon800:00−8w3691100 0.1 1002137
03:00−12sw487950 0.1 100397
06:00−12ssw48799 0.0 1001118
09:00−5sw6119453 0.1 999694
12:00−3wsw81385100 0.4 9981393
15:00−7w9157884 1.0 10011582
18:00−8w81581100 0.1 10051084
21:00−10wnw61386100 0.1 1010646